FW6744 Weather Reports


Display with metric or nautical units.
time (UTC)temp
F
wind
direction
speed
MPH
gust
MPH
rain 1hr
in
rain 24hr
in
rain mn
in
humidity
%
barometer
mb
20260903211548 96 59 0.0 1.0 0.00 0.00 0.00 59 1009.8
20260903211045 97 188 0.0 1.0 0.00 0.00 0.00 61 1010.0
20260903210544 97 192 0.0 0.0 0.00 0.00 0.00 60 1010.0
20260903210040 97 192 0.0 1.0 0.00 0.00 0.00 60 1010.1
20260903205541 98 192 0.0 1.0 0.00 0.00 0.00 56 1010.1
20260903205044 98 194 0.0 0.0 0.00 0.00 0.00 58 1010.2
20260903204539 98 194 0.0 1.0 0.00 0.00 0.00 56 1010.1
20260903204302 98 194 0.0 1.0 0.00 0.00 0.00 53 1010.2
20260903203539 97 217 0.0 1.0 0.00 0.00 0.00 53 1010.3
20260903203038 97 39 0.0 1.0 0.00 0.00 0.00 55 1010.2
20260903202536 98 39 0.0 1.0 0.00 0.00 0.00 56 1010.3
20260903202037 98 39 0.0 1.0 0.00 0.00 0.00 53 1010.4
20260903201756 99 39 0.0 0.0 0.00 0.00 0.00 56 1010.5
20260903201024 99 39 0.0 1.0 0.00 0.00 0.00 55 1010.5
20260903200519 98 39 0.0 1.0 0.00 0.00 0.00 55 1010.6
20260903200013 98 39 0.0 1.0 0.00 0.00 0.00 54 1010.8
20260903195506 98 34 0.0 1.0 0.00 0.00 0.00 54 1010.8
20260903195000 98 33 1.0 3.0 0.00 0.00 0.00 54 1010.8
20260903194722 99 34 1.0 3.0 0.00 0.00 0.00 52 1010.9
20260903193948 99 37 1.0 3.0 0.00 0.00 0.00 51 1011.0
20260903193442 99 33 1.0 3.0 0.00 0.00 0.00 52 1011.0
20260903192937 100 34 0.0 3.0 0.00 0.00 0.00 48 1011.1
20260903192431 100 33 0.0 1.0 0.00 0.00 0.00 52 1011.1
20260903191925 100 161 0.0 3.0 0.00 0.00 0.00 52 1011.2
20260903191419 98 136 0.0 3.0 0.00 0.00 0.00 54 1011.2
20260903190912 98 218 0.0 2.0 0.00 0.00 0.00 56 1011.3
20260903190900 96 30 0.0 2.0 0.00 0.00 0.00 57 1011.4
20260903185857 96 39 0.0 0.0 0.00 0.00 0.00 59 1011.5
20260903185613 96 46 0.0 0.0 0.00 0.00 0.00 60 1011.6
20260903184845 97 37 0.0 0.0 0.00 0.00 0.00 62 1011.7
20260903184338 97 37 0.0 0.0 0.00 0.00 0.00 61 1011.7
20260903184053 96 37 0.0 0.0 0.00 0.00 0.00 61 1011.7
20260903183520 98 31 0.0 0.0 0.00 0.00 0.00 57 1012.0
20260903183410 97 33 0.0 0.0 0.00 0.00 0.00 59 1011.8
20260903182315 98 212 0.0 0.0 0.00 0.00 0.00 60 1012.0
20260903181809 98 234 0.0 1.0 0.00 0.00 0.00 61 1012.0
20260903181522 97 231 0.0 1.0 0.00 0.00 0.00 59 1012.1
20260903180757 97 214 0.0 3.0 0.00 0.00 0.00 59 1012.2
20260903180523 96 309 1.0 3.0 0.00 0.00 0.00 60 1012.2
20260903175745 96 189 0.0 3.0 0.00 0.00 0.00 61 1012.4
20260903175239 96 220 1.0 4.0 0.00 0.00 0.00 62 1012.5
20260903174733 95 226 1.0 4.0 0.00 0.00 0.00 62 1012.6
20260903174444 94 195 0.0 1.0 0.00 0.00 0.00 65 1012.5
20260903173940 94 51 1.0 4.0 0.00 0.00 0.00 66 1012.5
20260903173214 94 33 1.0 4.0 0.00 0.00 0.00 64 1012.6
20260903172708 94 16 0.0 3.0 0.00 0.00 0.00 65 1012.6
20260903172425 94 37 0.0 2.0 0.00 0.00 0.00 64 1012.7
20260903171657 94 160 0.0 3.0 0.00 0.00 0.00 66 1012.7
20260903171151 93 27 1.0 3.0 0.00 0.00 0.00 66 1012.7
20260903170904 94 28 0.0 3.0 0.00 0.00 0.00 65 1012.7
20260903170139 94 177 0.0 1.0 0.00 0.00 0.00 66 1012.8
20260903165858 93 224 0.0 1.0 0.00 0.00 0.00 67 1012.8
20260903165127 92 212 1.0 3.0 0.00 0.00 0.00 70 1012.9
20260903164621 91 56 1.0 3.0 0.00 0.00 0.00 70 1013.1
20260903164114 91 52 0.0 2.0 0.00 0.00 0.00 71 1013.1
20260903163831 91 52 0.0 2.0 0.00 0.00 0.00 70 1013.1
20260903163102 90 53 0.0 1.0 0.00 0.00 0.00 72 1013.1
20260903162558 89 37 0.0 1.0 0.00 0.00 0.00 73 1013.2
20260903162050 88 34 0.0 3.0 0.00 0.00 0.00 75 1013.2
20260903161545 88 34 1.0 3.0 0.00 0.00 0.00 75 1013.3
20260903161039 87 266 0.0 2.0 0.00 0.00 0.00 76 1013.3
20260903160533 87 144 0.0 1.0 0.00 0.00 0.00 77 1013.4
20260903160027 87 145 0.0 2.0 0.00 0.00 0.00 78 1013.4
20260903155745 86 32 0.0 2.0 0.00 0.00 0.00 78 1013.4
20260903155241 86 35 0.0 2.0 0.00 0.00 0.00 80 1013.3
20260903154516 86 35 0.0 2.0 0.00 0.00 0.00 79 1013.4
20260903154016 85 28 0.0 2.0 0.00 0.00 0.00 80 1013.4
20260903153517 85 221 0.0 1.0 0.00 0.00 0.00 80 1013.5
20260903153501 85 32 0.0 2.0 0.00 0.00 0.00 81 1013.5
20260903152517 85 32 0.0 2.0 0.00 0.00 0.00 81 1013.5
20260903152016 85 42 0.0 2.0 0.00 0.00 0.00 81 1013.5
20260903151736 85 36 0.0 2.0 0.00 0.00 0.00 82 1013.4
20260903151015 85 36 0.0 2.0 0.00 0.00 0.00 81 1013.4
20260903150515 85 41 0.0 1.0 0.00 0.00 0.00 83 1013.4
20260903150016 85 62 0.0 2.0 0.00 0.00 0.00 83 1013.3
20260903145743 85 46 0.0 2.0 0.00 0.00 0.00 82 1013.3
20260903145016 85 43 0.0 2.0 0.00 0.00 0.00 82 1013.3
20260903144518 85 94 0.0 1.0 0.00 0.00 0.00 82 1013.2
20260903144013 85 176 0.0 2.0 0.00 0.00 0.00 82 1013.1
20260903143514 84 210 0.0 2.0 0.00 0.00 0.00 81 1013.2
20260903143242 84 163 0.0 1.0 0.00 0.00 0.00 82 1013.1
20260903142738 84 190 0.0 2.0 0.00 0.00 0.00 81 1013.0
20260903142013 84 37 1.0 4.0 0.00 0.00 0.00 81 1013.0
20260903141512 84 11 1.0 4.0 0.00 0.00 0.00 81 1013.1
20260903141012 83 227 0.0 2.0 0.00 0.00 0.00 82 1013.0
20260903140735 83 63 0.0 1.0 0.00 0.00 0.00 82 1012.9
20260903140013 83 219 0.0 1.0 0.00 0.00 0.00 82 1012.7
20260903135511 82 207 0.0 1.0 0.00 0.00 0.00 82 1012.6
20260903135013 82 64 0.0 1.0 0.00 0.00 0.00 83 1012.6
20260903134513 81 105 0.0 1.0 0.00 0.00 0.00 84 1012.6
20260903134011 81 212 0.0 1.0 0.00 0.00 0.00 85 1012.6
20260903133512 80 212 0.0 4.0 0.00 0.00 0.00 87 1012.7
20260903133012 80 212 0.0 4.0 0.00 0.00 0.00 88 1012.7
20260903132511 79 151 0.0 1.0 0.00 0.00 0.00 90 1012.9
20260903132011 79 221 0.0 2.0 0.00 0.00 0.00 92 1013.0
20260903131512 78 222 0.0 2.0 0.00 0.00 0.00 94 1013.0
20260903131013 77 205 0.0 1.0 0.00 0.00 0.00 96 1013.0
20260903130741 77 173 0.0 0.0 0.00 0.00 0.00 97 1013.1
20260903130016 77 173 0.0 0.0 0.00 0.00 0.00 97 1013.1
20260903125514 77 173 0.0 0.0 0.00 0.00 0.00 97 1013.2
20260903125012 77 103 0.0 0.0 0.00 0.00 0.00 98 1013.3
20260903124730 77 103 0.0 0.0 0.00 0.00 0.00 98 1013.3
20260903124013 77 103 0.0 0.0 0.00 0.00 0.00 98 1013.4
20260903123510 77 103 0.0 0.0 0.00 0.00 0.00 98 1013.3
20260903123008 76 103 0.0 0.0 0.00 0.00 0.00 98 1013.3
20260903122505 76 103 0.0 0.0 0.00 0.00 0.00 98 1013.2
20260903122004 76 103 0.0 0.0 0.00 0.00 0.00 98 1013.3
20260903121501 76 103 0.0 0.0 0.00 0.00 0.00 98 1013.3
20260903121001 76 103 0.0 0.0 0.00 0.00 0.00 98 1013.3
20260903120458 75 103 0.0 0.0 0.00 0.00 0.00 98 1013.3
20260903115957 75 103 0.0 0.0 0.00 0.00 0.00 98 1013.3
20260903115456 75 103 0.0 0.0 0.00 0.00 0.00 98 1013.3
20260903114956 75 103 0.0 0.0 0.00 0.00 0.00 98 1013.3
20260903114454 74 103 0.0 0.0 0.00 0.00 0.00 98 1013.2
20260903113956 74 103 0.0 0.0 0.00 0.00 0.00 97 1013.1
20260903113455 74 103 0.0 0.0 0.00 0.00 0.00 97 1013.1
20260903113432 74 103 0.0 0.0 0.00 0.00 0.00 97 1013.0
20260903112710 74 103 0.0 0.0 0.00 0.00 0.00 97 1013.0
20260903111937 74 103 0.0 0.0 0.00 0.00 0.00 97 1013.0
20260903111430 74 103 0.0 0.0 0.00 0.00 0.00 97 1012.8
20260903110925 74 103 0.0 0.0 0.00 0.00 0.00 97 1012.8
20260903110643 74 103 0.0 0.0 0.00 0.00 0.00 97 1012.7
20260903105912 74 103 0.0 0.0 0.00 0.00 0.00 97 1012.7
20260903105406 74 103 0.0 0.0 0.00 0.00 0.00 97 1012.7
20260903104901 74 103 0.0 0.0 0.00 0.00 0.00 97 1012.6
20260903104355 74 103 0.0 0.0 0.00 0.00 0.00 97 1012.6
20260903104117 74 103 0.0 0.0 0.00 0.00 0.00 97 1012.6
20260903103343 74 103 0.0 0.0 0.00 0.00 0.00 97 1012.6
20260903102837 75 103 0.0 0.0 0.00 0.00 0.00 97 1012.7
20260903102330 75 103 0.0 0.0 0.00 0.00 0.00 97 1012.6
20260903101824 75 103 0.0 0.0 0.00 0.00 0.00 97 1012.6
20260903101319 75 103 0.0 0.0 0.00 0.00 0.00 97 1012.8
20260903100813 75 103 0.0 0.0 0.00 0.00 0.00 97 1012.7
20260903100534 75 103 0.0 0.0 0.00 0.00 0.00 97 1012.6
20260903095801 75 103 0.0 0.0 0.00 0.00 0.00 97 1012.5
20260903095518 75 103 0.0 0.0 0.00 0.00 0.00 97 1012.5
20260903094749 75 103 0.0 0.0 0.00 0.00 0.00 97 1012.6
20260903094243 75 103 0.0 0.0 0.00 0.00 0.00 97 1012.6
20260903093736 75 103 0.0 0.0 0.00 0.00 0.00 97 1012.6
20260903093231 75 103 0.0 0.0 0.00 0.00 0.00 97 1012.6
20260903092948 75 103 0.0 0.0 0.00 0.00 0.00 97 1012.6
20260903092219 75 103 0.0 0.0 0.00 0.00 0.00 97 1012.6
20260903091712 75 103 0.0 0.0 0.00 0.00 0.00 97 1012.5
20260903091206 75 103 0.0 0.0 0.00 0.00 0.00 97 1012.4
20260903090701 75 103 0.0 0.0 0.00 0.00 0.00 97 1012.3
20260903090155 75 103 0.0 0.0 0.00 0.00 0.00 97 1012.3
20260903085649 75 103 0.0 0.0 0.00 0.00 0.00 97 1012.2
20260903085408 75 103 0.0 0.0 0.00 0.00 0.00 97 1012.2
20260903084636 75 103 0.0 0.0 0.00 0.00 0.00 97 1012.1
20260903084130 75 103 0.0 0.0 0.00 0.00 0.00 97 1012.2
20260903083625 75 103 0.0 0.0 0.00 0.00 0.00 96 1012.1
20260903083118 75 103 0.0 0.0 0.00 0.00 0.00 96 1012.0
20260903082613 75 103 0.0 0.0 0.00 0.00 0.00 96 1012.0
20260903082106 75 103 0.0 0.0 0.00 0.00 0.00 96 1012.1
20260903081600 76 103 0.0 0.0 0.00 0.00 0.00 96 1012.1
20260903081314 76 103 0.0 0.0 0.00 0.00 0.00 96 1012.2
20260903080812 76 103 0.0 0.0 0.00 0.00 0.00 96 1012.3
20260903080305 76 103 0.0 0.0 0.00 0.00 0.00 96 1012.3
20260903075537 76 103 0.0 0.0 0.00 0.00 0.00 96 1012.4
20260903075031 76 103 0.0 0.0 0.00 0.00 0.00 96 1012.4
20260903074525 76 103 0.0 0.0 0.00 0.00 0.00 96 1012.4
20260903074019 76 103 0.0 0.0 0.00 0.00 0.00 96 1012.4
20260903073513 76 103 0.0 0.0 0.00 0.00 0.00 96 1012.4
20260903073004 76 103 0.0 0.0 0.00 0.00 0.00 96 1012.4
20260903072458 76 103 0.0 0.0 0.00 0.00 0.00 96 1012.4
20260903071952 76 103 0.0 0.0 0.00 0.00 0.00 96 1012.5
20260903071446 76 103 0.0 0.0 0.00 0.00 0.00 96 1012.5
20260903070940 76 103 0.0 0.0 0.00 0.00 0.00 96 1012.4
20260903070434 76 103 0.0 0.0 0.00 0.00 0.00 96 1012.5
20260903065928 76 103 0.0 0.0 0.00 0.00 0.00 96 1012.5
20260903065429 77 103 0.0 0.0 0.00 0.00 0.00 96 1012.6
20260903065411 77 103 0.0 0.0 0.00 0.00 0.00 96 1012.6
20260903064416 77 103 0.0 0.0 0.00 0.00 0.00 96 1012.6
20260903064131 77 103 0.0 0.0 0.00 0.00 0.00 96 1012.7
20260903063412 77 103 0.0 0.0 0.00 0.00 0.00 96 1012.7
20260903063128 77 103 0.0 0.0 0.00 0.00 0.00 96 1012.7
20260903062628 77 103 0.0 0.0 0.00 0.00 0.00 96 1012.7
20260903061905 77 103 0.0 0.0 0.00 0.00 0.00 95 1012.8
20260903061406 76 103 0.0 0.0 0.00 0.00 0.00 95 1012.7
20260903060905 77 103 0.0 0.0 0.00 0.00 0.00 95 1012.7
20260903060404 77 103 0.0 0.0 0.00 0.00 0.00 95 1012.7
20260903060129 77 103 0.0 0.0 0.00 0.00 0.00 95 1012.7
20260903055404 77 103 0.0 0.0 0.00 0.00 0.00 95 1012.8
20260903054902 77 103 0.0 0.0 0.00 0.00 0.00 95 1012.9
20260903054403 77 103 0.0 0.0 0.00 0.00 0.00 95 1012.9
20260903053900 77 103 0.0 0.0 0.00 0.00 0.00 95 1012.9
20260903053359 77 103 0.0 0.0 0.00 0.00 0.00 95 1013.0
20260903052858 77 103 0.0 0.0 0.00 0.00 0.00 95 1013.1
20260903052358 77 103 0.0 0.0 0.00 0.00 0.00 95 1013.2
20260903052123 77 103 0.0 0.0 0.00 0.00 0.00 95 1013.2
20260903051356 77 103 0.0 0.0 0.00 0.00 0.00 95 1013.3
20260903051125 77 103 0.0 0.0 0.00 0.00 0.00 95 1013.4
20260903050353 77 103 0.0 1.0 0.00 0.00 0.00 95 1013.4
20260903045853 77 103 0.0 1.0 0.00 0.00 0.00 95 1013.5
20260903045354 77 103 0.0 0.0 0.00 0.00 0.00 95 1013.5
20260903044853 77 103 0.0 0.0 0.00 0.00 0.00 95 1013.4
20260903044353 77 103 0.0 0.0 0.00 0.00 0.00 95 1013.4
20260903043854 77 103 0.0 1.0 0.00 0.00 0.00 95 1013.4
20260903043353 77 103 0.0 1.0 0.00 0.00 0.00 95 1013.2
20260903042853 77 103 0.0 0.0 0.00 0.00 0.00 95 1013.1
20260903042354 77 103 0.0 0.0 0.00 0.00 0.00 95 1013.2
20260903041854 78 103 0.0 0.0 0.00 0.00 0.00 95 1013.1
20260903041353 78 103 0.0 0.0 0.00 0.00 0.00 95 1012.9
20260903041115 78 103 0.0 0.0 0.00 0.00 0.00 95 1012.8
20260903040353 78 103 0.0 0.0 0.00 0.00 0.00 95 1012.8
20260903035854 78 103 0.0 0.0 0.00 0.00 0.00 94 1012.8
20260903035614 78 103 0.0 0.0 0.00 0.00 0.00 94 1012.7
20260903034851 78 103 0.0 0.0 0.00 0.00 0.00 94 1012.7
20260903034348 78 103 0.0 0.0 0.00 0.00 0.00 94 1012.7
20260903033847 78 103 0.0 0.0 0.00 0.00 0.00 94 1012.7
20260903033343 78 103 0.0 0.0 0.00 0.00 0.00 94 1012.5
20260903032844 78 103 0.0 0.0 0.00 0.00 0.00 94 1012.5
20260903032345 78 103 0.0 0.0 0.00 0.00 0.00 94 1012.5
20260903031842 78 103 0.0 0.0 0.00 0.00 0.00 94 1012.5
20260903031340 78 103 0.0 0.0 0.00 0.00 0.00 94 1012.5
20260903030834 78 103 0.0 0.0 0.00 0.00 0.00 94 1012.6
20260903030328 78 103 0.0 0.0 0.00 0.00 0.00 93 1012.5
20260903025822 78 103 0.0 0.0 0.00 0.00 0.00 93 1012.6
20260903025316 78 103 0.0 0.0 0.00 0.00 0.00 93 1012.6
20260903024810 79 103 0.0 0.0 0.00 0.00 0.00 93 1012.6
20260903024304 79 103 0.0 0.0 0.00 0.00 0.00 93 1012.6
20260903023758 79 103 0.0 0.0 0.00 0.00 0.00 92 1012.7
20260903023252 79 103 0.0 0.0 0.00 0.00 0.00 92 1012.8
20260903022746 79 103 0.0 0.0 0.00 0.00 0.00 92 1012.8
20260903022241 79 103 0.0 0.0 0.00 0.00 0.00 92 1012.9
20260903021735 80 103 0.0 0.0 0.00 0.00 0.00 92 1012.9
20260903021448 80 103 0.0 0.0 0.00 0.00 0.00 92 1013.0
20260903020722 80 103 0.0 0.0 0.00 0.00 0.00 92 1013.1
20260903020217 80 103 0.0 0.0 0.00 0.00 0.00 92 1013.1
20260903015717 80 103 0.0 0.0 0.00 0.00 0.00 91 1013.3
20260903015217 80 103 0.0 0.0 0.00 0.00 0.00 92 1013.4
20260903014717 80 103 0.0 0.0 0.00 0.00 0.00 91 1013.3
20260903014217 80 103 0.0 0.0 0.00 0.00 0.00 91 1013.2
20260903013717 80 103 0.0 0.0 0.00 0.00 0.00 90 1013.2
20260903013219 80 103 0.0 0.0 0.00 0.00 0.00 91 1013.2
20260903012715 80 103 0.0 0.0 0.00 0.00 0.00 90 1013.2
20260903012215 80 103 0.0 0.0 0.00 0.00 0.00 90 1013.2
20260903011715 80 103 0.0 0.0 0.00 0.00 0.00 90 1013.3
20260903011214 81 103 0.0 0.0 0.00 0.00 0.00 90 1013.3
20260903011200 81 103 0.0 0.0 0.00 0.00 0.00 89 1013.3
20260903010215 81 103 0.0 0.0 0.00 0.00 0.00 89 1013.3
20260903005716 81 103 0.0 0.0 0.00 0.00 0.00 89 1013.3
20260903005216 81 103 0.0 0.0 0.00 0.00 0.00 89 1013.2
20260903004714 81 103 0.0 0.0 0.00 0.00 0.00 89 1013.2
20260903004212 81 103 0.0 0.0 0.00 0.00 0.00 88 1013.1
20260903003712 82 103 0.0 0.0 0.00 0.00 0.00 88 1012.9
20260903003206 82 103 0.0 0.0 0.00 0.00 0.00 87 1012.9
20260903002704 82 103 0.0 0.0 0.00 0.00 0.00 87 1012.8
20260903002206 82 103 0.0 0.0 0.00 0.00 0.00 86 1012.7
20260903001703 82 103 0.0 1.0 0.00 0.00 0.00 86 1012.8
20260903001644 83 103 0.0 1.0 0.00 0.00 0.00 86 1012.9
20260903000704 83 103 0.0 0.0 0.00 0.00 0.00 85 1012.8
20260903000204 83 103 0.0 1.0 0.00 0.00 0.00 85 1012.9
20260902235704 83 103 0.0 1.0 0.00 0.00 0.00 85 1012.6
20260902235204 83 103 0.0 0.0 0.00 0.00 0.00 84 1012.7
20260902234706 83 103 0.0 0.0 0.00 0.00 0.00 84 1012.7
20260902234201 84 103 0.0 1.0 0.00 0.00 0.00 84 1012.8
20260902233702 84 103 0.0 1.0 0.00 0.00 0.00 84 1012.5
20260902233202 84 90 0.0 1.0 0.00 0.00 0.00 84 1012.2
20260902232658 84 38 0.0 1.0 0.00 0.00 0.00 84 1012.6
20260902232200 84 38 0.0 0.0 0.00 0.00 0.00 84 1013.2
20260902231659 84 38 0.0 0.0 0.00 0.00 0.00 84 1013.3
20260902231159 84 38 0.0 0.0 0.00 0.00 0.00 84 1013.3
20260902230659 84 38 0.0 1.0 0.00 0.00 0.00 84 1013.2
20260902230159 84 38 0.0 1.0 0.00 0.00 0.00 84 1013.1
20260902225656 84 38 0.0 1.0 0.00 0.00 0.00 83 1013.1
20260902225156 84 38 0.0 1.0 0.00 0.00 0.00 83 1013.0
20260902224656 84 38 0.0 1.0 0.00 0.00 0.00 83 1012.9
20260902224154 84 38 0.0 1.0 0.00 0.00 0.00 82 1013.1
20260902223656 84 38 0.0 1.0 0.00 0.00 0.00 81 1013.2
20260902223156 84 38 0.0 1.0 0.00 0.00 0.00 81 1013.2
20260902222656 84 38 0.0 0.0 0.00 0.00 0.00 80 1013.4
20260902222156 85 36 0.0 2.0 0.00 0.00 0.00 80 1013.7
20260902221654 85 36 0.0 2.0 0.00 0.00 0.00 79 1013.9
20260902221154 86 36 0.0 0.0 0.00 0.00 0.00 77 1013.2
20260902220652 86 36 0.0 0.0 0.00 0.00 0.00 76 1013.2
20260902220150 87 36 0.0 0.0 0.00 0.00 0.00 74 1013.3
20260902215644 87 36 0.0 0.0 0.00 0.00 0.00 73 1013.2
20260902215138 88 36 0.0 0.0 0.00 0.00 0.00 72 1013.2
20260902214631 89 36 0.0 1.0 0.00 0.00 0.00 70 1013.4
20260902214125 90 36 0.0 1.0 0.00 0.00 0.00 69 1013.3
20260902213620 91 344 0.0 1.0 0.00 0.00 0.00 68 1013.2
20260902213113 91 344 0.0 1.0 0.00 0.00 0.00 68 1013.1
20260902212607 91 345 0.0 1.0 0.00 0.00 0.00 67 1013.2
20260902212101 91 111 0.0 1.0 0.00 0.00 0.00 67 1013.4